Regional Weather Roundup
Issued by NWS Grand Forks, ND

Home | Current Version | Previous Version | Text Only | Print | Product List | Glossary Off
Versions: 1 2 3 4 5 6 7 8 9 10 11 12 13 14 15 16 17 18 19 20 21 22 23 24 25 26 27 28 29 30 31 32 33 34 35 36 37 38 39 40 41 42 43 44 45 46 47 48 49 50

000
ASUS43 KFGF 230231
RWRFGF
PRAIRIE TO PINES  WEATHER ROUNDUP
NATIONAL WEATHER SERVICE EASTERN NORTH DAKOTA/GRAND FORKS ND
900 PM CDT WED MAR 22 2017

 **SATELLITE DATA USED TO AUGMENT SKY COVER AT AUTOMATED STATIONS**
 *****  WEATHER ACROSS EASTERN NORTH DAKOTA  *****

CITY           SKY/WX    TMP DP  RH WIND       PRES   REMARKS
GRAND FORKS    CLOUDY    33  17  51 S18       30.08F WCI  22
GRAND FRKS AFB CLOUDY    32  22  67 S21G29    30.07F WCI  20
DEVILS LAKE    FAIR      29  24  82 SE16G25   29.99S WCI  17
FARGO          CLOUDY    35  24  64 SE21G30   30.10F WCI  24
WAHPETON ARPT  CLOUDY    34  23  64 SE18      30.13S WCI  23
$$

 ***** WEATHER ACROSS CENTRAL AND WESTERN NORTH DAKOTA  *****

CITY           SKY/WX    TMP DP  RH WIND       PRES   REMARKS
BISMARCK       FAIR      36  29  75 SE12      29.90R
MINOT          FAIR      36  29  75 SE13      29.83F
JAMESTOWN      FAIR      30  25  81 SE15      29.98F WCI  19
MINOT AFB      FAIR      34  30  84 SE9       29.83S
GARRISON         N/A     34  29  82 SE16      29.83F WCI  24
WILLISTON      FAIR      42  32  67 CALM      29.77F
DICKINSON      FAIR      43  35  73 SE8       29.77R
HETTINGER      FAIR      43  33  68 E10       29.79F
$$

 *****  OTHER AIRPORT OBSERVATIONS IN OUR AREA  *****

CITY           SKY/WX    TMP DP  RH WIND       PRES   REMARKS
WALHALLA       NOT AVBL
GRAFTON AIRPOR CLOUDY    30  23  74 SE13G20   30.11R WCI  20
VALLEY CITY AR FLURRIES  30  28  93 SE18G25   30.04S WCI  18
CANDO          NOT AVBL
CAVALIER APRT  NOT AVBL
GWINNER        CLOUDY    32  27  80 MISG      30.05F
SHEYENNE NWR     N/A     33  23  67 S16       29.95S WCI  23
ROLLA          MOCLDY    27  27 100 S13G22    29.93S WCI  16
 ***** THE ABOVE OBSERVATIONS ARE NON NWS ARE NOT QUALITY
       CONTROLLED AND MAY MIS-REPORT RAIN FOR SNOW...
$$

  *****  WEATHER ACROSS NORTHERN MINNESOTA  *****

CITY           SKY/WX    TMP DP  RH WIND       PRES   REMARKS
FLAG ISLAND    CLOUDY    28  19  69 S13       30.15F WCI  18
WARROAD        FLURRIES  30  21  69 SE10      30.16F WCI  21
ROSEAU         CLOUDY    30  23  74 SE16      30.14F WCI  19
HALLOCK        CLOUDY    32  23  69 S22       30.09F WCI  19
THF RVR FALLS    N/A    N/A N/A N/A MISG        N/A
BAUDETTE       CLOUDY    33   9  36 SE13      30.17F WCI  24
WASKISH        CLOUDY    34  12  40 SE7       30.19F
CROOKSTON      CLOUDY    34  21  60 S21G26    30.11F WCI  22
STEPHEN NDAWN    N/A     30  21  69 SE16        N/A  WCI  19
GREENBUSH NDAW   N/A     30  21  69 SE12        N/A  WCI  21
$$
  *****  WEATHER ACROSS CENTRAL AND WEST MINNESOTA  *****

CITY           SKY/WX    TMP DP  RH WIND       PRES   REMARKS
FOSSTON        CLOUDY    30  16  55 SE13G18   30.13F WCI  20
BEMIDJI        CLOUDY    31  15  53 SE13G18   30.17F WCI  21
PARK RAPIDS    CLOUDY    33  13  43 S16       30.19F WCI  23
ELBOW LAKE     CLOUDY    33  23  66 E23G30    30.14F WCI  20
WADENA         CLOUDY    30  21  69 SE12      30.19F WCI  21
DETROIT LAKES  FAIR      32  23  69 SE21G28   30.14F WCI  20
MOORHEAD       CLOUDY    34  21  60 S21G29    30.12S WCI  22
FERGUS FALLS   CLOUDY    34  21  60 SE20G25   30.17F WCI  22
MORRIS MN      CLOUDY    34  25  69 SE22G31   30.14F WCI  22
STAPLES        CLOUDY    30  18  59 SE12G18   30.22F WCI  21
$$
  *****  WEATHER ELSEWHERE ACROSS MINNESOTA  *****

CITY           SKY/WX    TMP DP  RH WIND       PRES   REMARKS
DULUTH         CLOUDY    26  19  74 E12       30.31F WCI  16
INTRNTL FALLS  CLOUDY    33  10  38 SE7       30.24F
ELY            MOCLDY    28  10  47 SE9       30.30R WCI  20
CLOQUET        FAIR      28  18  64 E5        30.31S WCI  23
WHEATON        CLOUDY    34  25  69 SE18G26   30.16R WCI  23
BRAINERD       CLOUDY    33  14  45 S15       30.25F WCI  23
HIBBING        CLOUDY    30  11  45 SE9       30.27S WCI  22
ALEXANDRIA     CLOUDY    33  21  61 SE15G23   30.19F WCI  23
SAINT CLOUD    CLOUDY    35  18  49 SE13      30.26F
MINNEAPOLIS    CLOUDY    37  12  35 SE16      30.31F
$$

  *****  WEATHER ACROSS SOUTH DAKOTA  *****

CITY           SKY/WX    TMP DP  RH WIND       PRES   REMARKS
SIOUX FALLS    MOCLDY    39  26  59 SE16G25   30.13F
BROOKINGS      CLOUDY    35  24  64 SE24G31   30.09F WCI  23
WATERTOWN      CLOUDY    34  24  67 SE16G25   30.07S WCI  24
HURON          FAIR      37  26  64 SE18G26   30.03S
SISSETON         N/A     34  27  75 S22       30.11R WCI  22
ABERDEEN       FAIR      34  24  67 SE15      30.02F WCI  24
MITCHELL       FAIR      40  28  62 SE22G30   30.03F
PIERRE         FAIR      48  29  47 SE15      29.87R
MOBRIDGE       FAIR      42  27  55 SE21G29   29.85R
RAPID CITY     MOCLDY    51  41  68 N7        29.78S
$$

  *****  SOME WEATHER IN NEARBY STATES *****

CITY           SKY/WX    TMP DP  RH WIND       PRES   REMARKS
GLASGOW MT     FAIR      46  36  68 SE12      29.72S
GREAT FALLS MT FAIR      48  23  37 W7        29.76R
CHEYENNE WY    FAIR      57  32  38 SW6       29.88R
SCOTTSBLUFF NE FAIR      58  35  42 E18       29.81S
OMAHA NE       CLOUDY    47  24  40 SE16      30.19S
DES MOINES IA  CLOUDY    44  21  40 SE13      30.29S
DAVENPORT IA   MOCLDY    38  21  50 SE14      30.41F
CHICAGO IL     MOCLDY    30  18  60 NE6       30.49S WCI  24
EAU CLAIRE WI  CLOUDY    34   8  33 SE6       30.36F
LA CROSSE WI   FAIR      38  11  32 SE8       30.39F
$$

  *****  SOME NATIONAL WEATHER *****

CITY           SKY/WX    TMP DP  RH WIND       PRES   REMARKS
LA GUARDIA NY  FAIR      29   0  28 N18G26    30.42R WCI  16
RALEIGH NC     FAIR      45  15  30 E7        30.37R
ATLANTA GA     FAIR      57  26  30 N10       30.22R
NEW ORLEANS LA FAIR      72  61  68 SW7       30.14R
OKLAHOMA CITY  CLOUDY    63  55  75 SE18      30.04S
ALBUQUERQUE NM FAIR      74  11   9 S17G25    29.93R
SALT LAKE CITY CLOUDY    53  44  71 W5        29.76S
LOS ANGELES CA FAIR      60  54  80 SW16G24   29.96S
BOISE ID       FAIR      56  33  42 NW8       29.83S
SEATTLE WA     MOCLDY    47  41  80 SW17G25   29.99R
$$

*** WEATHER ACROSS MANITOBA...SASKATCHEWAN AND ONTARIO ***
                ***ONTARIO***

CITY           SKY/WX    TMP DP  RH WIND       PRES   REMARKS
GERALDTON      PTCLDY    12  -9  37 SW5       30.37R WCI   4
THUNDER BAY    MOCLDY    25  14  63 S5        30.42S WCI  19
SIOUX LOOKOUT  MOCLDY    28   0  29 S7        30.25F WCI  21
TORONTO        CLEAR     21   9  58 N14       30.53R WCI   8
BIG TROUT LK   CLEAR      9  -2  61 SE3       30.23F
PICKLE LAKE    PTCLDY    21  -4  33 S6        30.26F WCI  14
DRYDEN         CLOUDY    30   5  34 SE8       30.23F WCI  23
KENORA         FLURRIES  30   9  40 SE13      30.16  WCI  20
$$
                *** MANITOBA***

CITY           SKY/WX    TMP DP  RH WIND       PRES   REMARKS
BRANDON        FRZ RAIN  28  23  80 SE14      29.92F WCI  17
DAUPHIN        CLOUDY    28  23  80 SE13      29.90F WCI  18
ISLAND LAKE    CLOUDY    28   5  37 SE10      30.09F WCI  19
PILOT MOUND      N/A     27  23  86 S21         N/A  WCI  13
THE PAS        FLURRIES  21  18  86 SE16G23   29.81F WCI   7
THOMPSON       CLOUDY    27   1  33 SE3       29.98F
WINNIPEG       CLOUDY    30  19  64 S17G25    30.10S WCI  18
LYNN LAKE      CLOUDY    25   7  46 SE12      29.82F WCI  14
CHURCHILL      CLEAR      9   3  78 S9        30.08F WCI  -5
GILLAM         CLEAR     23  -6  28 S7        30.08F WCI  15
$$
                ***SASKATCHEWAN***

CITY           SKY/WX    TMP DP  RH WIND       PRES   REMARKS
ESTEVAN        PTCLDY    34  30  86 SE8       29.79S
KINDERSLEY     PTCLDY    36  32  87 NW9G17    29.63R
LLOYDMINSTER   FLURRIES  25  25 100 NW12      29.63R WCI  14
PRINCE ALBERT  CLOUDY    28  25  86 E13G20    29.54F WCI  18
REGINA         PTCLDY    34  30  86 SE20      29.68F WCI  22
YORKTON        PTCLDY    28  27  93 SE15G22   29.74F WCI  17
N. BATTLEFORD  CLOUDY    30 N/A N/A W16       29.60R WCI  19
LA RONGE       LGT SNOW  19  18  93 E9        29.69F WCI   9
SASKATOON      PTCLDY    37  32  81 W20       29.60R
SWIFT CURRENT  PTCLDY    46  28  49 W9        29.64R
$$
NOTE: THESE ARE AUTOMATED STATIONS WITH LIMITED QUALITY CONTROL
      "FAIR" INDICATES FEW OR NO CLOUDS BELOW 12,000 FEET WITH NO
      SIGNIFICANT WEATHER AND/OR OBSTRUCTIONS TO VISIBILITY.
      SKY/WX - SKY CONDITION AND SIGNIFICANT WEATHER.
      TMP - AIR TEMPERATURE.    DP   - DEWPOINT TEMPERATURE.
      RH  - RELATIVE HUMIDITY.  PRES - PRESSURE.
      HX  - HEAT INDEX.         WCI  - WIND CHILL INDEX.
$




USA.gov is the U.S. government's official web portal to all federal, state and local government web resources and services.